Japanese version Home page |
Updated on September 24, 2007 |
Profile
|
Orbital ElementsT 2007 Mar. 26.439 TT MPC q 0.63318 (2000.0) P Q Peri. 97.689 +0.029624 +0.986938 Node 190.879 +0.178246 +0.150666 e 1.0 Incl. 122.963 +0.983540 -0.057032 From 12 observations 2007 Aug. 7-9.
|
Finding Charts
|
Magnitudes Graphm1 = 13.0 + 5 log d + 10.0 log r
|
The orbital elements are published on M.P.E.C. 2007-P23.
|